Location: Bukit Nyuki
(2.5885°N, 113.7476°E)
Time: 05:28:39
(UTC+00:00)

Spelda - Pass Details

Date: 18 May 2021
Orbit: 381 x 22417 km, 5.2° (Epoch: 22 June)

Event Time Altitude Azimuth Distance (km) Brightness Sun altitude
Rises 12:46:53 0° 268° (W) 2,946 6.9 -32.8°
Reaches altitude 10° 12:48:17 10° 269° (W) 2,360 6.2 -33.2°
Maximum altitude 12:53:18 85° 357° (N) 1,562 4.3 -34.3°
Enters shadow 12:55:27 62° 77° (ENE) 2,151 4.9 -34.8°
Exits shadow 13:23:42 11° 86° (E) 11,805 8.6 -41.0°
Drops below altitude 10° 13:25:56 10° 86° (E) 12,414 8.7 -41.5°
Sets 14:09:01 0° 87° (E) 21,113 10.0 -50.6°
